Weather History for KMTH - March, 2014

Change the Weather History Date:

Friday, March 7, 2014

  Actual Average Record
Temperature  
Mean Temperature 75 °F 73 °F  
Max Temperature 80 °F 78 °F 87 °F (2003)
Min Temperature 69 °F 68 °F 55 °F (2013)
Degree Days  
Heating Degree Days 0 0  
Month to date heating degree days 0 0  
Since 1 July heating degree days 35 75  
Cooling Degree Days 10 8  
Month to date cooling degree days 74 56  
Year to date cooling degree days 580 438  
Growing Degree Days 24 (Base 50)    
Moisture  
Dew Point 65 °F    
Average Humidity 70    
Maximum Humidity 87    
Minimum Humidity 52    
Precipitation  
Precipitation 0.13 in 0.08 in 0.44 in (2002)
Month to date precipitation 0.81 0.53  
Year to date precipitation 4.50 4.35  
Snow  
Snow 0.00 in - - ()
Month to date snowfall 0.0  
Since 1 July snowfall 0.0  
Snow Depth 0.00 in    
Sea Level Pressure  
Sea Level Pressure 29.91 in    
Wind  
Wind Speed 12 mph (West)    
Max Wind Speed 20 mph    
Max Gust Speed 30 mph    
Visibility 9 miles    
Events Rain    
T = Trace of Precipitation, MM = Missing Value Source: NWS Daily Summary

Daily Weather History Graph

Daily Weather History Graph

Search for Another Location

Airport or City:

Trip Planner

Search our weather history database for the weather conditions in past years. The results will help you decide how hot, cold, wet, or windy it might be!

Date:

Astronomy

Mar. 07, 2014 Rise Set
Actual Time 6:41 AM EST 6:29 PM EST
Civil Twilight 6:18 AM EST 6:52 PM EST
Nautical Twilight 5:51 AM EST 7:18 PM EST
Astronomical Twilight 5:25 AM EST 7:45 PM EST
Moon 11:10 AM EST (3/7) No Moon Set
Length of Visible Light 12h 34m
Length of Day
11h 48m
Waxing Crescent, 42% of the Moon is Illuminated
Mar 7
Waxing Crescent
Mar 8
First Quarter
Mar 16
Full
Mar 23
Last Quarter
Mar 30
New

Hourly Weather History & Observations

Time (EST) Temp. Dew Point Humidity Pressure Visibility Wind Dir Wind Speed Gust Speed Precip Events Conditions
12:53 AM 75.0 °F 70.0 °F 84% 29.87 in 10.0 mi WSW 11.5 mph 21.9 mph N/A   Partly Cloudy
1:40 AM 75.9 °F 71.1 °F 85% 29.85 in 10.0 mi SW 11.5 mph 23.0 mph N/A   Overcast
1:53 AM 75.9 °F 71.1 °F 85% 29.84 in 10.0 mi SW 11.5 mph 23.0 mph N/A   Overcast
2:19 AM 75.0 °F 69.1 °F 82% 29.83 in 10.0 mi SW 11.5 mph 20.7 mph N/A   Partly Cloudy
2:53 AM 75.0 °F 69.1 °F 82% 29.83 in 10.0 mi SW 9.2 mph 19.6 mph N/A   Partly Cloudy
3:53 AM 75.0 °F 69.1 °F 82% 29.82 in 10.0 mi WSW 8.1 mph 17.3 mph N/A   Clear
4:34 AM 73.9 °F 70.0 °F 87% 29.85 in 1.8 mi West 13.8 mph 20.7 mph 0.09 in Rain Rain
4:45 AM 72.0 °F 70.0 °F 93% 29.84 in 2.5 mi West 4.6 mph - 0.13 in Rain Light Rain
4:50 AM 73.4 °F 69.8 °F 88% 29.84 in 8.0 mi West 9.2 mph - 0.13 in   Overcast
4:53 AM 73.0 °F 70.0 °F 90% 29.84 in 8.0 mi West 10.4 mph - 0.13 in   Overcast
5:04 AM 73.0 °F 69.1 °F 87% 29.85 in 10.0 mi West 10.4 mph 20.7 mph N/A   Overcast
5:35 AM 73.0 °F 69.1 °F 87% 29.86 in 10.0 mi West 10.4 mph - N/A   Overcast
5:43 AM 73.0 °F 68.0 °F 84% 29.86 in 10.0 mi West 10.4 mph 18.4 mph N/A   Overcast
5:53 AM 73.0 °F 68.0 °F 84% 29.87 in 10.0 mi West 9.2 mph 19.6 mph N/A   Overcast
6:53 AM 73.9 °F 68.0 °F 82% 29.89 in 10.0 mi West 10.4 mph 20.7 mph N/A   Mostly Cloudy
7:53 AM 73.9 °F 66.9 °F 79% 29.91 in 10.0 mi WNW 13.8 mph 21.9 mph N/A   Mostly Cloudy
8:53 AM 75.0 °F 66.0 °F 73% 29.94 in 10.0 mi West 13.8 mph 24.2 mph N/A   Mostly Cloudy
9:53 AM 77.0 °F 64.0 °F 64% 29.95 in 10.0 mi WNW 16.1 mph 24.2 mph N/A   Scattered Clouds
10:53 AM 79.0 °F 64.0 °F 60% 29.96 in 10.0 mi West 11.5 mph 20.7 mph N/A   Scattered Clouds
11:53 AM 78.1 °F 64.0 °F 62% 29.95 in 10.0 mi WNW 15.0 mph 23.0 mph N/A   Scattered Clouds
12:53 PM 78.1 °F 63.0 °F 60% 29.94 in 10.0 mi West 13.8 mph 24.2 mph N/A   Partly Cloudy
1:53 PM 78.1 °F 62.1 °F 58% 29.92 in 10.0 mi WNW 17.3 mph 25.3 mph N/A   Clear
2:53 PM 78.1 °F 61.0 °F 56% 29.91 in 10.0 mi West 16.1 mph 25.3 mph N/A   Partly Cloudy
3:53 PM 78.1 °F 59.0 °F 52% 29.91 in 10.0 mi West 13.8 mph 29.9 mph N/A   Clear
4:53 PM 75.9 °F 59.0 °F 56% 29.92 in 10.0 mi WNW 16.1 mph 25.3 mph N/A   Clear
5:53 PM 73.0 °F 62.1 °F 68% 29.94 in 10.0 mi WNW 15.0 mph 23.0 mph N/A   Scattered Clouds
6:53 PM 71.1 °F 62.1 °F 73% 29.95 in 10.0 mi NW 11.5 mph 19.6 mph N/A   Scattered Clouds
7:53 PM 70.0 °F 60.1 °F 71% 29.97 in 10.0 mi NW 12.7 mph 23.0 mph N/A   Partly Cloudy
8:53 PM 70.0 °F 59.0 °F 68% 30.00 in 10.0 mi NW 9.2 mph - N/A   Mostly Cloudy
9:53 PM 70.0 °F 60.1 °F 71% 30.02 in 10.0 mi NW 10.4 mph 19.6 mph N/A   Mostly Cloudy
10:53 PM 70.0 °F 57.9 °F 65% 30.04 in 10.0 mi WNW 9.2 mph - N/A   Scattered Clouds
11:53 PM 70.0 °F 57.0 °F 63% 30.04 in 10.0 mi NW 10.4 mph 18.4 mph N/A   Mostly Cloudy